TimeMST,TemperatureF,Dew PointF,Humidity,Sea Level PressureIn,VisibilityMPH,Wind Direction,Wind SpeedMPH,Gust SpeedMPH,PrecipitationIn,Events,Conditions,WindDirDegrees,DateUTC
12:57 AM,84.0,64.0,51,29.82,10.0,NW,8.1,-,N/A,,Overcast,310,2013-09-07 07:57:00
1:57 AM,82.9,64.0,53,29.83,10.0,West,3.5,-,N/A,,Mostly Cloudy,270,2013-09-07 08:57:00
2:57 AM,82.9,64.0,53,29.84,10.0,South,6.9,-,N/A,,Mostly Cloudy,170,2013-09-07 09:57:00
3:57 AM,82.0,64.9,56,29.85,10.0,Calm,Calm,-,N/A,,Mostly Cloudy,0,2013-09-07 10:57:00
4:57 AM,82.9,64.9,54,29.86,10.0,East,5.8,-,N/A,,Mostly Cloudy,90,2013-09-07 11:57:00
5:57 AM,82.0,66.0,58,29.86,10.0,East,5.8,-,N/A,,Mostly Cloudy,80,2013-09-07 12:57:00
6:57 AM,82.0,66.9,60,29.87,10.0,ENE,9.2,-,N/A,,Mostly Cloudy,60,2013-09-07 13:57:00
7:57 AM,82.9,66.9,58,29.87,10.0,ENE,8.1,-,N/A,,Mostly Cloudy,70,2013-09-07 14:57:00
8:57 AM,84.0,66.9,56,29.88,10.0,ENE,8.1,-,N/A,,Mostly Cloudy,60,2013-09-07 15:57:00
9:57 AM,86.0,64.9,49,29.89,10.0,ENE,10.4,-,N/A,,Mostly Cloudy,60,2013-09-07 16:57:00
10:57 AM,87.1,64.0,46,29.89,10.0,ENE,6.9,-,N/A,,Mostly Cloudy,60,2013-09-07 17:57:00
11:57 AM,88.0,64.0,45,29.88,10.0,Calm,Calm,-,N/A,,Mostly Cloudy,0,2013-09-07 18:57:00
12:57 PM,91.0,64.0,41,29.86,10.0,Variable,3.5,-,N/A,,Mostly Cloudy,0,2013-09-07 19:57:00
1:57 PM,93.0,63.0,37,29.83,10.0,South,4.6,-,N/A,,Mostly Cloudy,190,2013-09-07 20:57:00
2:57 PM,93.9,61.0,33,29.80,10.0,Calm,Calm,-,N/A,,Mostly Cloudy,0,2013-09-07 21:57:00
3:57 PM,98.1,61.0,29,29.78,10.0,Variable,4.6,-,N/A,,Mostly Cloudy,0,2013-09-07 22:57:00
4:57 PM,95.0,61.0,32,29.78,10.0,ESE,5.8,-,N/A,,Mostly Cloudy,110,2013-09-07 23:57:00
5:57 PM,93.9,60.1,32,29.78,10.0,South,5.8,-,N/A,,Mostly Cloudy,170,2013-09-08 00:57:00
6:57 PM,93.9,61.0,33,29.78,10.0,SSW,8.1,-,N/A,,Mostly Cloudy,200,2013-09-08 01:57:00
7:57 PM,87.1,64.9,48,29.80,10.0,WSW,16.1,-,N/A,,Mostly Cloudy,250,2013-09-08 02:57:00
8:57 PM,82.9,66.9,58,29.81,10.0,West,10.4,-,N/A,,Mostly Cloudy,260,2013-09-08 03:57:00
9:57 PM,82.0,66.9,60,29.81,10.0,Calm,Calm,-,N/A,,Mostly Cloudy,0,2013-09-08 04:57:00
10:57 PM,82.0,66.9,60,29.80,10.0,West,6.9,-,N/A,,Mostly Cloudy,260,2013-09-08 05:57:00
11:57 PM,82.9,66.0,56,29.79,10.0,NNW,8.1,-,N/A,,Scattered Clouds,330,2013-09-08 06:57:00